Regional Weather Roundup
Issued by NWS

Home | Current Version | Previous Version | Text Only | Print | Product List | Glossary On
Versions: 1 2 3 4 5 6 7 8 9 10 11 12 13 14 15 16 17 18 19 20 21 22 23 24 25 26 27 28 29 30 31 32 33 34 35 36 37 38 39 40 41 42 43 44 45 46 47 48 49 50
434
ASUS43 KMPX 080501
RWRMN
WEATHER ROUNDUP FOR MINNESOTA
NATIONAL WEATHER SERVICE TWIN CITIES/CHANHASSEN MN
1100 PM CST SUN FEB 07 2016


NOTE: "FAIR" INDICATES FEW OR NO CLOUDS BELOW 12,000 FEET WITH NO
SIGNIFICANT WEATHER AND/OR OBSTRUCTIONS TO VISIBILITY. N/A MEANS
CURRENT SKY AND/OR WEATHER CONDITIONS ARE NOT AVAILABLE.

MNZ060>063-068>070-080600-
   Twin Cities Metro

CITY           SKY/WX    TMP DP  RH WIND       PRES   REMARKS
TWIN CITIES    FLURRIES  17   8  67 NW22G29   29.77S WCI   0
ST PAUL        MIX PCPN  18  10  71 NW20      29.78R WCI   2
CRYSTAL        CLOUDY    18   9  68 NW15G24   29.76S WCI   4
BLAINE         CLOUDY    18  10  73 NW20G26   29.76R WCI   1
LAKEVILLE      FLURRIES  16  10  79 NW20G25   29.76R WCI  -1
EDEN PRAIRIE   CLOUDY    18   8  65 NW20G28   29.76S WCI   2
SOUTH ST PAUL  CLOUDY    19  10  69 NW18G24   29.76R WCI   4
LAKE ELMO      FLURRIES  19  12  73 NW14G22   29.75S WCI   6
$$
MNZ001>005-007-008-013>017-022>024-027-028-080600-
   Northwest Minnesota

CITY           SKY/WX    TMP DP  RH WIND       PRES   REMARKS
BEMIDJI        LGT SNOW   6   1  80 NW20G29   29.85R WCI -14
HALLOCK        LGT SNOW  10   7  85 N24G33    30.04R WCI -10
ROSEAU         LGT SNOW   7   0  72 NW23      29.95S WCI -14
WARROAD        LGT SNOW   5   0  78 NW18G28   29.93R WCI -15
CROOKSTON      HVY SNOW  10   9  92 N36G43    30.02R VSB 1/4 WCI -13
FOSSTON        LGT SNOW   5   1  85 NW20G25   29.94R WCI -15
DETROIT LAKES  LGT SNOW  10   7  85 N31G40    29.92R WCI -12
MOORHEAD       MIX PCPN  12  10  92 N29G37    30.01R VSB 3/4 WCI  -9
PARK RAPIDS    LGT SNOW   9   2  73 NW24G31   29.83S WCI -12
MAHNOMEN       LGT SNOW   8   4  84 N23       29.93R WCI -12
$$
MNZ006-009>011-018-025>026-080600-
   North Central Minnesota

CITY           SKY/WX    TMP DP  RH WIND       PRES   REMARKS
BAUDETTE       LGT SNOW   5  -1  76 NW22G28   29.86R WCI -16
FLAG ISLAND    CLOUDY     3   0  85 NW20      29.90R FOG     WCI -18
INTL FALLS     LGT SNOW   9   4  80 NW15G23   29.78R WCI  -8
WASKISH        LGT SNOW   7   3  85 NW12      29.86R WCI  -9
LONGVILLE      FLURRIES   9   3  78 NW10G26   29.80R WCI  -6
GRAND RAPIDS   CLOUDY    10   3  72 NW22G30   29.74R WCI  -9
CRANE LAKE     CLOUDY    16  12  86 N7        29.75R WCI   6
ORR            LGT SNOW  12   7  79 NW13G20   29.70R WCI  -3
COOK           FLURRIES  12  10  92 W12       29.71R WCI  -2
WALKER         CLOUDY     8   2  78 NW16G25   29.82R WCI -10
$$
MNZ012-019>021-037-080600-
   Northeast Minnesota

CITY           SKY/WX    TMP DP  RH WIND       PRES   REMARKS
DULUTH         LGT SNOW  18  13  80 NW18G29   29.62R BLWGSNOWWCI   2
ELY            CLOUDY    19  18  93 N7        29.65R FOG     WCI  10
HIBBING        LGT SNOW  10   7  87 NW20G30   29.69R FOG     WCI  -9
EVELETH        LGT SNOW  16  10  79 NW16G25   29.69R WCI   0
DULUTH HARBOR  CLOUDY    25  19  80 NW20      29.67S WCI  11
TWO HARBORS    CLOUDY    27  21  80 NW12G18   29.58S WCI  16
SILVER BAY     LGT SNOW  28  25  86 CALM      29.58R
GRAND MARAIS     N/A     22  16  78 N9G21     29.61R WCI  12
G MARAIS ARPRT LGT SNOW  12   9  85 N16       29.55R WCI  -4
$$
MNZ029>031-032-039>041-046>048-054>057-064-080600-
   West Central Minnesota

CITY           SKY/WX    TMP DP  RH WIND       PRES   REMARKS
FERGUS FALLS     N/A     10   9  92 N29G48    29.96F WCI -11
WHEATON        LGT SNOW  18  12  79 NW25G31   30.00R WCI  -1
MORRIS         SNOW      12  10  92 NW41G49   29.91R VSB 1/2 WCI -12
ALEXANDRIA     LGT SNOW  11   6  81 NW22G29   29.86R WCI  -8
ELBOW LAKE     LGT SNOW  11   7  83 NW35G44   29.92S WCI -12
WADENA         LGT SNOW   9   3  78 NW20G28   29.84S WCI -11
GLENWOOD       LGT SNOW  12   7  79 NW31G38   29.85S WCI -10
APPLETON       CLOUDY    18  12  79 NW26G39   29.94R FOG     WCI  -1
BENSON         LGT SNOW  16   9  73 N33G47    29.90F WCI  -5
ORTONVILLE     FLURRIES  18  10  73 N21G37    29.96R WCI   1
MADISON        LGT SNOW  19  14  79 N37G43    29.96R WCI  -1
WILLMAR        LGT SNOW  16  10  79 NW31G41   29.87R WCI  -5
$$
MNZ033>034-036-042>043-049>051-058-059-080600-
   Central Minnesota

CITY           SKY/WX    TMP DP  RH WIND       PRES   REMARKS
ST CLOUD       CLOUDY    14   6  70 NW17G29   29.79R WCI  -3
SAUK CENTRE    LGT SNOW  11   7  86 NW25G31   29.83R WCI -10
PAYNESVILLE    LGT SNOW  13   8  83 NW23G29   29.84R WCI  -6
AITKIN         FLURRIES  14   5  67 NW10G21   29.75R WCI   1
PINE RIVER     CLOUDY    10   3  72 NW14G22   29.83R WCI  -5
BRAINERD       MIX PCPN  12   5  73 NW22G30   29.79R WCI  -7
STAPLES        LGT SNOW   9   3  78 NW18G30   29.82S WCI -10
LONG PRAIRIE   LGT SNOW  10   5  79 NW22G33   29.82R WCI  -9
LITTLE FALLS   CLOUDY    12   5  73 NW9G22    29.82R WCI   0
LITCHFIELD     LGT SNOW  14  10  85 NW22G35   29.83R WCI  -4
BUFFALO        CLOUDY    15   8  71 NW14G23   29.81R WCI   1
MAPLE LAKE     CLOUDY    16   9  75 NW15G26   29.81R WCI   1
$$
MNZ037-044-045-052-053-080600-
   East Central Minnesota

CITY           SKY/WX    TMP DP  RH WIND       PRES   REMARKS
PRINCETON      CLOUDY    16   9  73 NW18G25   29.77R WCI  -1
MORA           CLOUDY    18  10  73 NW17G26   29.76R WCI   2
CAMBRIDGE      FLURRIES  18   9  68 NW10G23   29.74R WCI   6
RUSH CITY      CLOUDY    17  10  73 NW15G24   29.74R WCI   2
MOOSE LAKE     LGT SNOW  18  10  73 NW9G18    29.69S WCI   6
HINCKLEY       FLURRIES  19  12  73 NW12      29.72R WCI   7
CLOQUET        LGT SNOW  18  12  79 NW17G24   29.66R WCI   2
MCGREGOR       CLOUDY    14   9  79 NW15G23   29.74R WCI  -1
$$
MNZ071>073-080-081-089-090-097-098-080600-
   Southwest Minnesota

CITY           SKY/WX    TMP DP  RH WIND       PRES   REMARKS
MONTEVIDEO     LGT SNOW  18  16  93 N20G29    29.94R WCI   1
GRANITE FALLS  LGT SNOW  19  15  84 NW24G33   29.93S WCI   2
CANBY          LGT SNOW  23  18  83 NW23G33   29.96R WCI   7
MARSHALL       LGT SNOW  19  15  84 N26G37    29.90R FOG     WCI   1
REDWOOD FALLS  FLURRIES  18  11  74 NW23G41   29.87S WCI   0
OLIVIA         LGT SNOW  18  10  73 NW33G45   29.86R WCI  -3
PIPESTONE      LGT SNOW  21  14  73 N17G31    29.92R VSB 1   WCI   7
WINDOM         LGT SNOW  18  16  93 NW22G35   29.85S WCI   0
WORTHINGTON    CLOUDY   N/A N/A N/A NW23G33   29.89R
JACKSON          N/A     19  16  86 NW26G32   29.86R WCI   1
TRACY            N/A     19  16  86 NW24G44   29.90S WCI   2
SLAYTON        LGT SNOW  18  17  94 NW29G35   29.88F WCI  -1
$$
MNZ065>067-074>077-082>085-091>093-080600-
   South Central Minnesota

CITY           SKY/WX    TMP DP  RH WIND       PRES   REMARKS
MANKATO        CLOUDY    18  12  79 NW20G29   29.80S WCI   1
NEW ULM        LGT SNOW  18  10  73 NW32G47   29.81S VSB 1   WCI  -3
ST JAMES       LGT SNOW  19  18  93 NW28G37   29.86S VSB 1   WCI   1
FAIRMONT       CLOUDY    19  12  73 NW28G35   29.82F WCI   1
GLENCOE        LGT SNOW  17  14  86 NW20G25   29.81R WCI   1
FARIBAULT      LGT SNOW  18  12  79 W16G23    29.77S WCI   3
OWATONNA       LGT SNOW  18  12  79 NW24G35   29.76S WCI   0
WASECA         LGT SNOW  19  14  79 NW20G30   29.79S WCI   4
ALBERT LEA     LGT SNOW  19  16  86 NW17G29   29.76S WCI   4
$$
MNZ078>079-086>088-094>096-080600-
   Southeast Minnesota

CITY           SKY/WX    TMP DP  RH WIND       PRES   REMARKS
ROCHESTER      LGT SNOW  20  16  84 NW25G33   29.70S FOG     WCI   2
RED WING       LGT SNOW  21  14  73 NW14G20   29.73S WCI   8
STANTON        LGT SNOW  19  14  79 NW17G26   29.75S WCI   4
DODGE CENTER   LGT SNOW  18  16  93 NW17G23   29.72S WCI   2
WINONA         LGT SNOW  28  23  80 NW16G23   29.71S WCI  17
AUSTIN         LGT SNOW  19  18  93 NW21G31   29.73S WCI   3
PRESTON        LGT SNOW  22  18  84 NW22G32   29.69F WCI   6
$$
ABBREVIATIONS USED IN REMARKS
   TC - TEMPERATURES IN CELSIUS
  WCI - WIND CHILL INDEX
   HX - HEAT INDEX
  VSB - VISIBILITY
$$




USA.gov is the U.S. government's official web portal to all federal, state and local government web resources and services.